Pittsfield, IL

1:22 AM CST on December 08, 2016 (GMT -0600)
Pittsfield Penstone Municipal

Weather History for KPPQ - May, 2014

Change the Weather History Date:

Monday, May 19, 2014

  Actual Average (KUIN) Record (KUIN)
Temperature  
Mean Temperature 64 °F 64 °F  
Max Temperature 77 °F 74 °F 90 °F (1962)
Min Temperature 52 °F 54 °F 41 °F (1929)
Degree Days  
Heating Degree Days 0 4  
Month to date heating degree days 104  
Since 1 July heating degree days 5534  
Cooling Degree Days 0 2  
Month to date cooling degree days 28  
Year to date cooling degree days 46  
Growing Degree Days 14 (Base 50)    
Moisture  
Dew Point 51 °F    
Average Humidity 60    
Maximum Humidity 73    
Minimum Humidity 48    
Precipitation  
Precipitation 0.00 in 0.15 in 1.75 in (1931)
Month to date precipitation 2.68  
Year to date precipitation 12.23  
Sea Level Pressure  
Sea Level Pressure 30.03 in    
Wind  
Wind Speed 11 mph (SE)    
Max Wind Speed 23 mph    
Max Gust Speed 36 mph    
Visibility 10 miles    
Events      
T = Trace of Precipitation, MM = Missing Value Source: NWS Daily Summary

Daily Weather History Graph

Daily Weather History Graph

Search for Another Location

Airport or City:

Trip Planner

Search our weather history database for the weather conditions in past years. The results will help you decide how hot, cold, wet, or windy it might be!

Date:

Astronomy

May. 19, 2014 Rise Set
Actual Time 5:45 AM CDT 8:14 PM CDT
Civil Twilight 5:14 AM CDT 8:45 PM CDT
Nautical Twilight 4:36 AM CDT 9:23 PM CDT
Astronomical Twilight 3:53 AM CDT 10:06 PM CDT
Moon 12:02 AM CDT (5/19) 10:42 AM CDT (5/19)
Length of Visible Light 15h 30m
Length of Day
14h 29m
Waning Gibbous, 71% of the Moon is Illuminated
May 19
Waning Gibbous
May 21
Last Quarter
May 28
New
Jun 5
First Quarter
Jun 12
Full

Hourly Weather History & Observations

Time (CDT) Temp. Dew Point Humidity Pressure Visibility Wind Dir Wind Speed Gust Speed Precip Events Conditions
12:15 AM 53.8 °F 42.8 °F 66% 30.16 in 10.0 mi SE 8.1 mph - N/A   Clear
12:35 AM 53.6 °F 42.8 °F 67% 30.16 in 10.0 mi SE 6.9 mph - N/A   Clear
12:55 AM 52.9 °F 42.6 °F 68% 30.16 in 10.0 mi SE 6.9 mph - N/A   Clear
1:15 AM 52.9 °F 42.4 °F 68% 30.16 in 10.0 mi SE 6.9 mph - N/A   Clear
1:35 AM 52.3 °F 42.3 °F 69% 30.16 in 10.0 mi SE 5.8 mph - N/A   Clear
1:55 AM 52.2 °F 42.1 °F 69% 30.16 in 10.0 mi SE 6.9 mph - N/A   Clear
2:15 AM 52.0 °F 42.3 °F 69% 30.16 in 10.0 mi SE 5.8 mph - N/A   Clear
2:35 AM 52.7 °F 42.8 °F 69% 30.15 in 10.0 mi SE 8.1 mph - N/A   Scattered Clouds
2:55 AM 53.6 °F 42.8 °F 67% 30.16 in 10.0 mi SE 6.9 mph - N/A   Scattered Clouds
3:15 AM 53.8 °F 42.6 °F 66% 30.16 in 10.0 mi ESE 5.8 mph - N/A   Scattered Clouds
3:35 AM 53.6 °F 43.0 °F 67% 30.17 in 10.0 mi ESE 5.8 mph - N/A   Scattered Clouds
3:55 AM 53.6 °F 43.2 °F 68% 30.17 in 10.0 mi East 4.6 mph - N/A   Mostly Cloudy
4:15 AM 53.2 °F 43.7 °F 70% 30.17 in 10.0 mi ESE 5.8 mph - N/A   Mostly Cloudy
4:35 AM 53.1 °F 43.3 °F 70% 30.17 in 10.0 mi ESE 6.9 mph - N/A   Scattered Clouds
4:55 AM 53.8 °F 43.2 °F 67% 30.18 in 10.0 mi SE 8.1 mph - N/A   Mostly Cloudy
5:15 AM 54.1 °F 42.8 °F 66% 30.17 in 10.0 mi ESE 8.1 mph - N/A   Scattered Clouds
5:35 AM 54.0 °F 43.0 °F 66% 30.17 in 10.0 mi SE 10.4 mph - N/A   Clear
5:55 AM 53.8 °F 42.8 °F 66% 30.17 in 10.0 mi SE 8.1 mph - N/A   Clear
6:15 AM 53.8 °F 42.8 °F 66% 30.16 in 10.0 mi SE 10.4 mph - N/A   Clear
6:35 AM 54.0 °F 43.2 °F 67% 30.16 in 10.0 mi SE 8.1 mph - N/A   Scattered Clouds
6:55 AM 54.5 °F 43.3 °F 66% 30.16 in 10.0 mi SE 11.5 mph - N/A   Mostly Cloudy
7:15 AM 55.4 °F 43.5 °F 64% 30.16 in 10.0 mi SE 10.4 mph - N/A   Clear
7:35 AM 56.1 °F 44.1 °F 64% 30.16 in 10.0 mi SSE 11.5 mph - N/A   Clear
8:55 AM 61.9 °F 45.3 °F 55% 30.15 in 10.0 mi SSE 16.1 mph - N/A   Scattered Clouds
9:35 AM 64.8 °F 44.8 °F 48% 30.13 in 10.0 mi SSE 19.6 mph 27.6 mph N/A   Scattered Clouds
9:55 AM 64.6 °F 45.0 °F 49% 30.12 in 10.0 mi SSE 20.7 mph 25.3 mph N/A   Mostly Cloudy
10:15 AM 64.9 °F 45.7 °F 50% 30.11 in 10.0 mi SSE 16.1 mph 25.3 mph N/A   Overcast
10:35 AM 66.4 °F 46.6 °F 49% 30.11 in 10.0 mi SSE 15.0 mph - N/A   Overcast
10:55 AM 66.7 °F 46.8 °F 49% 30.10 in 10.0 mi SE 17.3 mph 25.3 mph N/A   Mostly Cloudy
11:15 AM 67.8 °F 47.7 °F 48% 30.10 in 10.0 mi SE 23.0 mph 28.8 mph N/A   Mostly Cloudy
11:35 AM 68.0 °F 48.2 °F 49% 30.09 in 10.0 mi SSE 19.6 mph - N/A   Mostly Cloudy
11:55 AM 68.5 °F 48.2 °F 48% 30.08 in 10.0 mi SE 20.7 mph 29.9 mph N/A   Scattered Clouds
12:15 PM 70.0 °F 49.3 °F 48% 30.07 in 10.0 mi SSE 18.4 mph 23.0 mph N/A   Scattered Clouds
12:35 PM 70.9 °F 50.7 °F 49% 30.05 in 10.0 mi SE 17.3 mph 24.2 mph N/A   Scattered Clouds
12:55 PM 71.2 °F 51.3 °F 49% 30.04 in 10.0 mi SSE 20.7 mph 25.3 mph N/A   Clear
1:15 PM 71.6 °F 52.0 °F 50% 30.03 in 10.0 mi SSE 18.4 mph 26.5 mph N/A   Clear
1:35 PM 72.0 °F 52.7 °F 51% 30.02 in 10.0 mi SSE 19.6 mph 23.0 mph N/A   Clear
1:55 PM 73.4 °F 54.3 °F 51% 30.01 in 10.0 mi SE 18.4 mph 23.0 mph N/A   Clear
2:15 PM 73.6 °F 54.3 °F 51% 30.00 in 10.0 mi SE 19.6 mph 26.5 mph N/A   Clear
2:35 PM 73.9 °F 55.4 °F 52% 29.98 in 10.0 mi SSE 20.7 mph 26.5 mph N/A   Clear
2:55 PM 73.4 °F 55.4 °F 53% 29.97 in 10.0 mi SE 18.4 mph 25.3 mph N/A   Clear
3:15 PM 74.5 °F 56.1 °F 53% 29.96 in 10.0 mi SE 18.4 mph 28.8 mph N/A   Clear
3:35 PM 74.7 °F 56.5 °F 53% 29.95 in 10.0 mi SSE 20.7 mph - N/A   Scattered Clouds
3:55 PM 75.4 °F 56.8 °F 52% 29.92 in 10.0 mi SE 21.9 mph 28.8 mph N/A   Clear
4:15 PM 75.9 °F 57.7 °F 53% 29.91 in 10.0 mi SE 19.6 mph 28.8 mph N/A   Clear
4:35 PM 76.1 °F 58.3 °F 54% 29.90 in 10.0 mi SSE 18.4 mph 28.8 mph N/A   Clear
4:55 PM 75.6 °F 58.5 °F 55% 29.89 in 10.0 mi SSE 21.9 mph 29.9 mph N/A   Scattered Clouds
5:15 PM 76.5 °F 58.3 °F 53% 29.89 in 10.0 mi SSE 19.6 mph 31.1 mph N/A   Scattered Clouds
5:55 PM 77.0 °F 58.8 °F 53% 29.87 in 10.0 mi SSE 21.9 mph 31.1 mph N/A   Scattered Clouds
6:15 PM 77.0 °F 58.1 °F 52% 29.86 in 10.0 mi South 23.0 mph 35.7 mph N/A   Scattered Clouds
6:35 PM 76.5 °F 58.1 °F 53% 29.85 in 10.0 mi SSE 16.1 mph 31.1 mph N/A   Clear
6:55 PM 76.1 °F 58.1 °F 54% 29.84 in 10.0 mi SSE 17.3 mph 31.1 mph N/A   Clear
7:15 PM 75.4 °F 58.1 °F 55% 29.83 in 10.0 mi South 20.7 mph 29.9 mph N/A   Clear
7:35 PM 74.7 °F 58.6 °F 57% 29.84 in 10.0 mi South 13.8 mph 23.0 mph N/A   Clear
7:55 PM 74.1 °F 58.5 °F 58% 29.85 in 10.0 mi SSE 15.0 mph 23.0 mph N/A   Clear
8:15 PM 73.4 °F 58.5 °F 59% 29.85 in 10.0 mi SSE 11.5 mph 21.9 mph N/A   Clear
8:35 PM 73.0 °F 58.3 °F 60% 29.85 in 10.0 mi SSE 13.8 mph - N/A   Clear
8:55 PM 72.3 °F 58.5 °F 62% 29.86 in 10.0 mi South 10.4 mph - N/A   Clear
9:15 PM 71.6 °F 58.5 °F 63% 29.87 in 10.0 mi South 9.2 mph - N/A   Clear
9:35 PM 71.1 °F 58.3 °F 64% 29.88 in 10.0 mi SSE 9.2 mph - N/A   Clear
9:55 PM 70.3 °F 58.3 °F 66% 29.88 in 10.0 mi SSE 6.9 mph - N/A   Clear
10:15 PM 70.5 °F 58.1 °F 65% 29.90 in 10.0 mi South 8.1 mph - N/A   Clear
10:35 PM 69.8 °F 58.1 °F 66% 29.91 in 10.0 mi South 6.9 mph - N/A   Clear
10:55 PM 68.2 °F 58.1 °F 70% 29.91 in 10.0 mi SSE 4.6 mph - N/A   Clear
11:15 PM 67.5 °F 58.1 °F 72% 29.91 in 10.0 mi SSE 6.9 mph - N/A   Clear
11:35 PM 67.3 °F 58.1 °F 72% 29.92 in 10.0 mi SSE 6.9 mph - N/A   Clear
11:55 PM 67.1 °F 58.1 °F 73% 29.93 in 10.0 mi SE 6.9 mph - N/A   Clear